Location: Cruquius
(52.3348°N, 4.6319°E)
Time: 06:27:34
(UTC+00:00)

NOSS 3-4 (C) - Pass Details

Date: 12 May 2021
Orbit: 873 x 1339 km, 63.4° (Epoch: 06 May)

Event Time Altitude Azimuth Distance (km) Brightness Sun altitude
Rises 20:24:12 0° 313° (NW) 3,741 9.2 -7.8°
Reaches altitude 10° 20:26:41 10° 314° (NW) 2,848 7.7 -8.1°
Maximum altitude 20:33:30 84° 43° (NE) 1,142 3.9 -8.8°
Enters shadow 20:40:50 11° 132° (SE) 3,070 5.4 -9.6°
